TimeCEST,TemperatureF,Dew PointF,Humidity,Sea Level PressureIn,VisibilityMPH,Wind Direction,Wind SpeedMPH,Gust SpeedMPH,PrecipitationIn,Events,Conditions,WindDirDegrees,DateUTC
12:20 AM,64.4,59.0,83,30.04,5.0,Calm,Calm,-,N/A,,Unknown,0,2012-10-21 22:20:00
12:50 AM,64.4,62.6,94,30.04,5.0,NE,4.6,-,N/A,,Unknown,40,2012-10-21 22:50:00
1:20 AM,62.6,60.8,94,30.04,5.0,North,2.3,-,N/A,,Unknown,10,2012-10-21 23:20:00
1:50 AM,64.4,60.8,88,30.04,5.0,NW,2.3,-,N/A,,Unknown,310,2012-10-21 23:50:00
2:20 AM,64.4,60.8,88,30.04,5.0,West,3.5,-,N/A,,Unknown,260,2012-10-22 00:20:00
2:50 AM,62.6,60.8,94,30.04,5.0,West,3.5,-,N/A,,Unknown,260,2012-10-22 00:50:00
3:20 AM,64.4,60.8,88,30.04,5.0,West,4.6,-,N/A,,Unknown,260,2012-10-22 01:20:00
3:50 AM,62.6,59.0,88,30.04,5.0,West,3.5,-,N/A,,Unknown,280,2012-10-22 01:50:00
4:00 AM,62.6,60.8,94,30.04,5.0,North,-9999.0,-,N/A,,Unknown,0,2012-10-22 02:00:00
4:20 AM,62.6,60.8,94,30.04,-9999.0,North,-9999.0,-,N/A,,Unknown,0,2012-10-22 02:20:00
4:50 AM,62.6,60.8,94,30.04,5.0,NE,5.8,-,N/A,,Unknown,50,2012-10-22 02:50:00
5:20 AM,60.8,60.8,100,30.04,5.0,NE,2.3,-,N/A,,Unknown,50,2012-10-22 03:20:00
5:50 AM,60.8,59.0,94,30.04,5.0,NE,3.5,-,N/A,,Unknown,40,2012-10-22 03:50:00
6:20 AM,60.8,59.0,94,30.04,5.0,Variable,2.3,-,N/A,,Unknown,0,2012-10-22 04:20:00
6:50 AM,60.8,57.2,88,30.04,5.0,West,3.5,-,N/A,,Unknown,270,2012-10-22 04:50:00
7:20 AM,62.6,59.0,88,30.04,-9999.0,WNW,3.5,-,N/A,,Clear,290,2012-10-22 05:20:00
7:50 AM,62.6,59.0,88,30.04,-9999.0,Variable,1.2,-,N/A,,Clear,0,2012-10-22 05:50:00
8:20 AM,62.6,59.0,88,30.06,-9999.0,ENE,4.6,-,N/A,,Clear,70,2012-10-22 06:20:00
8:50 AM,64.4,60.8,88,30.06,-9999.0,NE,4.6,-,N/A,,Clear,40,2012-10-22 06:50:00
9:20 AM,66.2,60.8,83,30.06,5.0,NE,5.8,-,N/A,,Unknown,40,2012-10-22 07:20:00
9:50 AM,68.0,60.8,78,30.04,5.0,ENE,4.6,-,N/A,,Unknown,70,2012-10-22 07:50:00
10:20 AM,69.8,62.6,78,30.04,-9999.0,ENE,5.8,-,N/A,,Clear,70,2012-10-22 08:20:00
10:50 AM,73.4,66.2,78,30.04,-9999.0,Variable,2.3,-,N/A,,Clear,0,2012-10-22 08:50:00
11:20 AM,75.2,64.4,69,30.04,-9999.0,Variable,1.2,-,N/A,,Clear,0,2012-10-22 09:20:00
11:50 AM,75.2,62.6,65,30.04,-9999.0,Variable,2.3,-,N/A,,Clear,0,2012-10-22 09:50:00
12:20 PM,78.8,64.4,61,30.04,-9999.0,Variable,2.3,-,N/A,,Clear,0,2012-10-22 10:20:00
12:50 PM,77.0,64.4,65,30.01,-9999.0,South,6.9,-,N/A,,Clear,190,2012-10-22 10:50:00
1:20 PM,77.0,64.4,65,30.01,-9999.0,South,8.1,-,N/A,,Clear,180,2012-10-22 11:20:00
2:50 PM,75.2,68.0,78,30.01,6.2,South,9.2,-,N/A,,Partly Cloudy,190,2012-10-22 12:50:00
3:20 PM,75.2,66.2,73,30.01,6.2,South,6.9,-,N/A,,Partly Cloudy,180,2012-10-22 13:20:00
4:20 PM,75.2,66.2,73,29.98,-9999.0,South,5.8,-,N/A,,Clear,180,2012-10-22 14:20:00
4:50 PM,75.2,68.0,78,29.98,-9999.0,South,8.1,-,N/A,,Clear,180,2012-10-22 14:50:00
5:20 PM,73.4,68.0,83,29.98,-9999.0,South,5.8,-,N/A,,Clear,190,2012-10-22 15:20:00
5:50 PM,73.4,68.0,83,29.98,-9999.0,South,4.6,-,N/A,,Clear,180,2012-10-22 15:50:00
6:20 PM,71.6,68.0,88,30.01,-9999.0,South,4.6,-,N/A,,Clear,190,2012-10-22 16:20:00
6:50 PM,71.6,68.0,88,30.01,5.0,South,2.3,-,N/A,,Unknown,180,2012-10-22 16:50:00
7:20 PM,69.8,66.2,88,30.04,5.0,SSE,2.3,-,N/A,,Partly Cloudy,160,2012-10-22 17:20:00
7:50 PM,69.8,66.2,88,30.04,5.0,SW,1.2,-,N/A,,Partly Cloudy,230,2012-10-22 17:50:00
8:20 PM,69.8,66.2,88,30.04,5.0,Variable,1.2,-,N/A,,Partly Cloudy,0,2012-10-22 18:20:00
8:50 PM,68.0,64.4,88,30.04,5.0,Variable,1.2,-,N/A,,Partly Cloudy,0,2012-10-22 18:50:00
9:20 PM,68.0,64.4,88,30.04,5.0,Variable,3.5,-,N/A,,Partly Cloudy,0,2012-10-22 19:20:00
9:50 PM,69.8,66.2,88,30.04,5.0,Variable,2.3,-,N/A,,Partly Cloudy,0,2012-10-22 19:50:00
10:20 PM,69.8,66.2,88,30.06,5.0,Variable,1.2,-,N/A,,Scattered Clouds,0,2012-10-22 20:20:00
10:50 PM,69.8,66.2,88,30.06,5.0,Variable,2.3,-,N/A,,Scattered Clouds,0,2012-10-22 20:50:00
11:20 PM,69.8,66.2,88,30.04,5.0,Variable,2.3,-,N/A,,Scattered Clouds,0,2012-10-22 21:20:00
11:50 PM,68.0,66.2,94,30.04,5.0,NE,3.5,-,N/A,,Scattered Clouds,50,2012-10-22 21:50:00